Time,TemperatureF,DewpointF,PressureIn,WindDirection,WindDirectionDegrees,WindSpeedMPH,WindSpeedGustMPH,Humidity,HourlyPrecipIn,Conditions,Clouds,dailyrainin,SoftwareType,DateUTC
2013-05-10 00:01:00,67.8,66.9,29.89,NE,46,4.0,4.0,97,0.00,,,0.33,meteohub,2013-05-10 05:01:00,
2013-05-10 00:06:00,67.6,66.7,29.88,NE,52,1.0,4.0,97,0.00,,,0.33,meteohub,2013-05-10 05:06:00,
2013-05-10 00:11:00,67.6,66.7,29.89,NE,53,0.0,7.0,97,0.00,,,0.33,meteohub,2013-05-10 05:11:00,
2013-05-10 00:16:00,67.5,66.6,29.88,NE,53,2.0,7.0,97,0.00,,,0.00,meteohub,2013-05-10 05:16:00,
2013-05-10 00:22:00,67.5,66.6,29.88,NE,53,0.0,4.0,97,0.00,,,0.00,meteohub,2013-05-10 05:22:00,
2013-05-10 00:27:00,67.5,66.6,29.88,NE,53,0.0,4.0,97,0.00,,,0.00,meteohub,2013-05-10 05:27:00,
2013-05-10 00:32:00,67.5,66.6,29.88,SE,142,0.0,4.0,97,0.00,,,0.00,meteohub,2013-05-10 05:32:00,
2013-05-10 00:37:00,67.5,66.2,29.88,East,87,0.0,4.0,96,0.00,,,0.00,meteohub,2013-05-10 05:37:00,
2013-05-10 00:42:00,67.5,66.2,29.88,East,87,0.0,3.0,96,0.00,,,0.00,meteohub,2013-05-10 05:42:00,
2013-05-10 00:48:00,67.3,66.0,29.87,East,87,0.0,3.0,96,0.00,,,0.00,meteohub,2013-05-10 05:48:00,
2013-05-10 00:53:00,67.3,66.0,29.87,East,87,0.0,3.0,96,0.00,,,0.00,meteohub,2013-05-10 05:53:00,
2013-05-10 00:58:00,67.1,65.8,29.87,East,87,0.0,3.0,96,0.00,,,0.00,meteohub,2013-05-10 05:58:00,
2013-05-10 01:04:00,66.9,65.7,29.87,East,87,0.0,3.0,96,0.00,,,0.00,meteohub,2013-05-10 06:04:00,
2013-05-10 01:09:00,66.9,65.7,29.86,East,87,0.0,3.0,96,0.00,,,0.00,meteohub,2013-05-10 06:09:00,
2013-05-10 01:14:00,66.9,66.0,29.86,East,87,0.0,3.0,97,0.00,,,0.00,meteohub,2013-05-10 06:14:00,
2013-05-10 01:19:00,66.9,66.0,29.86,East,87,0.0,1.0,97,0.00,,,0.00,meteohub,2013-05-10 06:19:00,
2013-05-10 01:25:00,66.9,66.0,29.86,East,87,0.0,1.0,97,0.00,,,0.00,meteohub,2013-05-10 06:25:00,
2013-05-10 01:30:00,66.7,65.8,29.86,East,87,0.0,2.0,97,0.00,,,0.00,meteohub,2013-05-10 06:30:00,
2013-05-10 01:35:00,66.7,65.8,29.86,East,87,0.0,2.0,97,0.00,,,0.00,meteohub,2013-05-10 06:35:00,
2013-05-10 01:40:00,66.7,65.8,29.85,East,84,1.0,3.0,97,0.00,,,0.00,meteohub,2013-05-10 06:40:00,
2013-05-10 01:46:00,66.6,65.7,29.85,East,84,1.0,3.0,97,0.00,,,0.00,meteohub,2013-05-10 06:46:00,
2013-05-10 01:51:00,66.6,65.7,29.85,East,84,0.0,5.0,97,0.00,,,0.00,meteohub,2013-05-10 06:51:00,
2013-05-10 01:56:00,66.6,65.7,29.85,East,84,1.0,5.0,97,0.00,,,0.00,meteohub,2013-05-10 06:56:00,
2013-05-10 02:01:00,66.6,65.7,29.85,East,84,0.0,5.0,97,0.00,,,0.00,meteohub,2013-05-10 07:01:00,
2013-05-10 02:07:00,66.6,65.7,29.85,East,84,0.0,5.0,97,0.00,,,0.00,meteohub,2013-05-10 07:07:00,
2013-05-10 02:12:00,66.6,65.7,29.85,East,84,0.0,2.0,97,0.00,,,0.00,meteohub,2013-05-10 07:12:00,
2013-05-10 02:17:00,66.6,65.7,29.86,East,84,0.0,2.0,97,0.00,,,0.00,meteohub,2013-05-10 07:17:00,
2013-05-10 02:22:00,66.7,65.8,29.86,East,84,0.0,2.0,97,0.00,,,0.00,meteohub,2013-05-10 07:22:00,
2013-05-10 02:27:00,66.7,65.8,29.85,East,84,0.0,2.0,97,0.00,,,0.00,meteohub,2013-05-10 07:27:00,
2013-05-10 02:32:00,66.7,65.8,29.85,East,84,0.0,2.0,97,0.00,,,0.00,meteohub,2013-05-10 07:32:00,
2013-05-10 02:37:00,66.7,65.8,29.85,East,84,0.0,2.0,97,0.00,,,0.00,meteohub,2013-05-10 07:37:00,
2013-05-10 02:43:00,66.7,65.8,29.85,East,84,2.0,2.0,97,0.00,,,0.00,meteohub,2013-05-10 07:43:00,
2013-05-10 02:48:00,66.7,65.8,29.84,East,84,0.0,1.0,97,0.00,,,0.00,meteohub,2013-05-10 07:48:00,
2013-05-10 02:53:00,66.6,65.3,29.84,East,84,2.0,2.0,96,0.00,,,0.00,meteohub,2013-05-10 07:53:00,
2013-05-10 02:58:00,66.6,65.3,29.84,East,87,1.0,2.0,96,0.00,,,0.00,meteohub,2013-05-10 07:58:00,
2013-05-10 03:04:00,66.6,65.3,29.85,SSE,166,1.0,2.0,96,0.00,,,0.00,meteohub,2013-05-10 08:04:00,
2013-05-10 03:09:00,66.6,65.3,29.84,SE,144,0.0,5.0,96,0.00,,,0.00,meteohub,2013-05-10 08:09:00,
2013-05-10 03:14:00,66.6,65.1,29.84,SE,144,1.0,5.0,95,0.00,,,0.00,meteohub,2013-05-10 08:14:00,
2013-05-10 03:19:00,66.6,65.1,29.83,SE,144,0.0,5.0,95,0.00,,,0.00,meteohub,2013-05-10 08:19:00,
2013-05-10 03:25:00,66.4,64.9,29.83,SE,144,2.0,5.0,95,0.00,,,0.00,meteohub,2013-05-10 08:25:00,
2013-05-10 03:30:00,66.4,65.1,29.83,ESE,120,0.0,2.0,96,0.00,,,0.00,meteohub,2013-05-10 08:30:00,
2013-05-10 03:35:00,66.2,64.9,29.83,ESE,121,0.0,2.0,96,0.00,,,0.00,meteohub,2013-05-10 08:35:00,
2013-05-10 03:40:00,66.0,64.6,29.84,ESE,121,0.0,3.0,95,0.00,,,0.00,meteohub,2013-05-10 08:40:00,
2013-05-10 03:46:00,66.0,64.8,29.84,ESE,120,0.0,3.0,96,0.00,,,0.00,meteohub,2013-05-10 08:46:00,
2013-05-10 03:51:00,66.0,64.8,29.84,ESE,121,0.0,0.0,96,0.00,,,0.00,meteohub,2013-05-10 08:51:00,
2013-05-10 03:56:00,66.0,64.8,29.84,ESE,120,0.0,0.0,96,0.00,,,0.00,meteohub,2013-05-10 08:56:00,
2013-05-10 04:01:00,66.0,64.8,29.84,ESE,121,0.0,0.0,96,0.00,,,0.00,meteohub,2013-05-10 09:01:00,
2013-05-10 04:07:00,66.4,65.1,29.83,ESE,120,0.0,0.0,96,0.00,,,0.00,meteohub,2013-05-10 09:07:00,
2013-05-10 04:12:00,66.2,64.9,29.83,ESE,121,0.0,0.0,96,0.00,,,0.00,meteohub,2013-05-10 09:12:00,
2013-05-10 04:17:00,66.2,64.9,29.84,ESE,120,0.0,0.0,96,0.00,,,0.00,meteohub,2013-05-10 09:17:00,
2013-05-10 04:22:00,66.2,64.9,29.84,ESE,121,0.0,2.0,96,0.00,,,0.00,meteohub,2013-05-10 09:22:00,
2013-05-10 04:27:00,66.2,64.9,29.85,ESE,121,0.0,0.0,96,0.00,,,0.00,meteohub,2013-05-10 09:27:00,
2013-05-10 04:32:00,66.4,65.1,29.85,ESE,121,0.0,0.0,96,0.00,,,0.00,meteohub,2013-05-10 09:32:00,
2013-05-10 04:38:00,66.4,65.1,29.86,ESE,121,0.0,0.0,96,0.00,,,0.00,meteohub,2013-05-10 09:38:00,
2013-05-10 04:43:00,66.4,65.1,29.86,ESE,121,0.0,0.0,96,0.00,,,0.00,meteohub,2013-05-10 09:43:00,
2013-05-10 04:48:00,66.4,65.1,29.85,ESE,120,0.0,0.0,96,0.00,,,0.00,meteohub,2013-05-10 09:48:00,
2013-05-10 04:54:00,66.2,64.9,29.86,ESE,121,0.0,0.0,96,0.00,,,0.00,meteohub,2013-05-10 09:54:00,
2013-05-10 04:59:00,66.0,64.8,29.85,ESE,121,0.0,1.0,96,0.00,,,0.00,meteohub,2013-05-10 09:59:00,
2013-05-10 05:04:00,66.0,64.8,29.85,ESE,120,0.0,1.0,96,0.00,,,0.00,meteohub,2013-05-10 10:04:00,
2013-05-10 05:10:00,66.0,64.8,29.85,ESE,121,0.0,1.0,96,0.00,,,0.00,meteohub,2013-05-10 10:10:00,
2013-05-10 05:15:00,66.0,64.8,29.86,NW,321,1.0,1.0,96,0.00,,,0.00,meteohub,2013-05-10 10:15:00,
2013-05-10 05:20:00,66.0,64.8,29.86,NW,321,3.0,4.0,96,0.00,,,0.00,meteohub,2013-05-10 10:20:00,
2013-05-10 05:25:00,65.8,64.6,29.87,NNW,329,1.0,4.0,96,0.00,,,0.00,meteohub,2013-05-10 10:25:00,
2013-05-10 05:31:00,65.7,64.4,29.87,NNW,336,1.0,4.0,96,0.00,,,0.00,meteohub,2013-05-10 10:31:00,
2013-05-10 05:36:00,65.7,64.4,29.87,NW,324,2.0,6.0,96,0.00,,,0.00,meteohub,2013-05-10 10:36:00,
2013-05-10 05:41:00,65.5,64.6,29.87,NW,323,0.0,6.0,97,0.00,,,0.00,meteohub,2013-05-10 10:41:00,
2013-05-10 05:47:00,65.3,64.4,29.88,NW,323,0.0,6.0,97,0.00,,,0.00,meteohub,2013-05-10 10:47:00,
2013-05-10 05:52:00,65.3,64.4,29.88,NW,323,0.0,5.0,97,0.00,,,0.00,meteohub,2013-05-10 10:52:00,
2013-05-10 05:57:00,65.1,64.2,29.87,NW,323,0.0,5.0,97,0.00,,,0.00,meteohub,2013-05-10 10:57:00,
2013-05-10 06:02:00,65.1,64.2,29.88,NW,323,0.0,5.0,97,0.00,,,0.00,meteohub,2013-05-10 11:02:00,
2013-05-10 06:07:00,65.1,64.2,29.88,NW,323,0.0,5.0,97,0.00,,,0.00,meteohub,2013-05-10 11:07:00,
2013-05-10 06:12:00,65.1,64.2,29.88,NW,323,0.0,0.0,97,0.00,,,0.00,meteohub,2013-05-10 11:12:00,
2013-05-10 06:17:00,65.1,64.2,29.88,NW,323,0.0,0.0,97,0.00,,,0.00,meteohub,2013-05-10 11:17:00,
2013-05-10 06:22:00,65.1,64.2,29.88,NW,323,0.0,0.0,97,0.00,,,0.00,meteohub,2013-05-10 11:22:00,
2013-05-10 06:27:00,65.1,64.2,29.89,NW,323,0.0,0.0,97,0.00,,,0.00,meteohub,2013-05-10 11:27:00,
2013-05-10 06:32:00,65.1,64.2,29.89,NW,323,0.0,0.0,97,0.00,,,0.00,meteohub,2013-05-10 11:32:00,
2013-05-10 06:37:00,65.1,64.2,29.90,NW,323,0.0,0.0,97,0.00,,,0.00,meteohub,2013-05-10 11:37:00,
2013-05-10 06:42:00,65.1,64.2,29.90,NW,323,0.0,0.0,97,0.00,,,0.00,meteohub,2013-05-10 11:42:00,
2013-05-10 06:47:00,65.1,64.2,29.91,NW,323,0.0,0.0,97,0.00,,,0.00,meteohub,2013-05-10 11:47:00,
2013-05-10 06:52:00,65.1,64.6,29.91,NW,323,0.0,1.0,98,0.00,,,0.00,meteohub,2013-05-10 11:52:00,
2013-05-10 06:57:00,65.1,64.6,29.91,NW,323,0.0,1.0,98,0.00,,,0.00,meteohub,2013-05-10 11:57:00,
2013-05-10 07:02:00,65.3,64.8,29.92,NW,323,0.0,1.0,98,0.00,,,0.00,meteohub,2013-05-10 12:02:00,
2013-05-10 07:07:00,65.3,64.8,29.92,NW,323,0.0,1.0,98,0.00,,,0.00,meteohub,2013-05-10 12:07:00,
2013-05-10 07:12:00,65.5,64.9,29.92,NW,323,0.0,1.0,98,0.00,,,0.00,meteohub,2013-05-10 12:12:00,
2013-05-10 07:17:00,65.7,65.1,29.93,NW,323,0.0,1.0,98,0.00,,,0.00,meteohub,2013-05-10 12:17:00,
2013-05-10 07:22:00,65.5,64.9,29.93,NW,323,1.0,1.0,98,0.00,,,0.00,meteohub,2013-05-10 12:22:00,
2013-05-10 07:27:00,65.5,64.9,29.93,NW,323,1.0,1.0,98,0.00,,,0.00,meteohub,2013-05-10 12:27:00,
2013-05-10 07:32:00,65.5,64.9,29.94,NW,326,0.0,1.0,98,0.00,,,0.00,meteohub,2013-05-10 12:32:00,
2013-05-10 07:37:00,65.5,64.9,29.94,NW,326,0.0,4.0,98,0.00,,,0.00,meteohub,2013-05-10 12:37:00,
2013-05-10 07:43:00,65.1,64.6,29.94,NW,326,0.0,4.0,98,0.00,,,0.00,meteohub,2013-05-10 12:43:00,
2013-05-10 07:48:00,65.1,64.2,29.94,NW,326,0.0,4.0,97,0.00,,,0.00,meteohub,2013-05-10 12:48:00,
2013-05-10 07:53:00,65.1,64.2,29.93,NNE,19,0.0,4.0,97,0.00,,,0.00,meteohub,2013-05-10 12:53:00,
2013-05-10 07:59:00,64.9,64.0,29.93,NNE,19,0.0,3.0,97,0.00,,,0.00,meteohub,2013-05-10 12:59:00,
2013-05-10 08:04:00,65.1,64.6,29.93,NNE,19,2.0,3.0,98,0.00,,,0.00,meteohub,2013-05-10 13:04:00,
2013-05-10 08:09:00,65.1,64.6,29.93,NNE,19,1.0,3.0,98,0.00,,,0.00,meteohub,2013-05-10 13:09:00,
2013-05-10 08:15:00,65.3,64.8,29.93,NE,36,0.0,3.0,98,0.00,,,0.00,meteohub,2013-05-10 13:15:00,
2013-05-10 08:20:00,65.3,64.8,29.93,NE,36,0.0,4.0,98,0.00,,,0.00,meteohub,2013-05-10 13:20:00,
2013-05-10 08:26:00,65.3,64.8,29.93,NE,37,1.0,4.0,98,0.00,,,0.00,meteohub,2013-05-10 13:26:00,
2013-05-10 08:31:00,65.3,64.8,29.93,NE,51,3.0,4.0,98,0.00,,,0.00,meteohub,2013-05-10 13:31:00,
2013-05-10 08:36:00,65.3,64.8,29.93,NE,50,0.0,6.0,98,0.00,,,0.00,meteohub,2013-05-10 13:36:00,
2013-05-10 08:42:00,65.5,64.9,29.94,NE,50,3.0,6.0,98,0.00,,,0.00,meteohub,2013-05-10 13:42:00,
2013-05-10 08:47:00,65.5,64.6,29.94,NE,51,1.0,6.0,97,0.00,,,0.00,meteohub,2013-05-10 13:47:00,
2013-05-10 08:52:00,65.5,64.6,29.94,NE,51,2.0,4.0,97,0.00,,,0.00,meteohub,2013-05-10 13:52:00,
2013-05-10 08:57:00,65.5,64.6,29.94,NE,50,2.0,4.0,97,0.00,,,0.00,meteohub,2013-05-10 13:57:00,
2013-05-10 09:02:00,65.7,64.8,29.94,NE,50,0.0,4.0,97,0.00,,,0.00,meteohub,2013-05-10 14:02:00,
2013-05-10 09:07:00,65.7,64.8,29.94,NE,51,0.0,4.0,97,0.00,,,0.00,meteohub,2013-05-10 14:07:00,
2013-05-10 09:12:00,65.7,64.8,29.95,NE,51,0.0,3.0,97,0.00,,,0.00,meteohub,2013-05-10 14:12:00,
2013-05-10 09:17:00,65.8,64.9,29.94,NE,50,0.0,3.0,97,0.00,,,0.00,meteohub,2013-05-10 14:17:00,
2013-05-10 09:22:00,65.8,64.6,29.95,NE,50,1.0,3.0,96,0.00,,,0.00,meteohub,2013-05-10 14:22:00,
2013-05-10 09:28:00,66.2,64.9,29.95,NE,50,1.0,3.0,96,0.00,,,0.00,meteohub,2013-05-10 14:28:00,
2013-05-10 09:33:00,66.4,65.1,29.95,NE,50,0.0,3.0,96,0.00,,,0.00,meteohub,2013-05-10 14:33:00,
2013-05-10 09:39:00,66.7,65.3,29.95,NW,315,0.0,3.0,95,0.00,,,0.00,meteohub,2013-05-10 14:39:00,
2013-05-10 09:44:00,67.1,65.3,29.94,NW,315,0.0,3.0,94,0.00,,,0.00,meteohub,2013-05-10 14:44:00,
2013-05-10 09:49:00,67.6,66.2,29.94,NW,315,0.0,4.0,95,0.00,,,0.00,meteohub,2013-05-10 14:49:00,
2013-05-10 09:54:00,67.6,65.8,29.94,NW,315,0.0,4.0,94,0.00,,,0.00,meteohub,2013-05-10 14:54:00,
2013-05-10 10:00:00,67.5,65.3,29.94,NW,315,0.0,4.0,93,0.00,,,0.00,meteohub,2013-05-10 15:00:00,
2013-05-10 10:05:00,67.3,65.1,29.94,NW,315,0.0,3.0,93,0.00,,,0.00,meteohub,2013-05-10 15:05:00,
2013-05-10 10:11:00,67.3,65.1,29.94,NW,315,0.0,3.0,93,0.00,,,0.00,meteohub,2013-05-10 15:11:00,
2013-05-10 10:16:00,67.1,64.9,29.94,NNE,22,3.0,3.0,93,0.00,,,0.00,meteohub,2013-05-10 15:16:00,
2013-05-10 10:21:00,67.3,65.1,29.94,ENE,59,0.0,3.0,93,0.00,,,0.00,meteohub,2013-05-10 15:21:00,
2013-05-10 10:26:00,67.3,65.1,29.94,ENE,59,0.0,3.0,93,0.00,,,0.00,meteohub,2013-05-10 15:26:00,
2013-05-10 10:32:00,67.3,65.1,29.94,ENE,59,0.0,3.0,93,0.00,,,0.00,meteohub,2013-05-10 15:32:00,
2013-05-10 10:37:00,67.3,65.1,29.94,ENE,59,1.0,3.0,93,0.00,,,0.00,meteohub,2013-05-10 15:37:00,
2013-05-10 10:42:00,67.6,65.5,29.94,ENE,58,0.0,4.0,93,0.00,,,0.00,meteohub,2013-05-10 15:42:00,
2013-05-10 10:48:00,67.5,65.3,29.94,ENE,59,0.0,4.0,93,0.00,,,0.00,meteohub,2013-05-10 15:48:00,
2013-05-10 10:53:00,68.2,66.0,29.94,ENE,59,0.0,4.0,93,0.00,,,0.00,meteohub,2013-05-10 15:53:00,
2013-05-10 10:58:00,68.4,65.7,29.94,ENE,58,0.0,2.0,91,0.00,,,0.00,meteohub,2013-05-10 15:58:00,
2013-05-10 11:04:00,68.7,65.7,29.94,ENE,58,0.0,2.0,90,0.00,,,0.00,meteohub,2013-05-10 16:04:00,
2013-05-10 11:09:00,69.4,65.7,29.95,ENE,69,0.0,2.0,88,0.00,,,0.00,meteohub,2013-05-10 16:09:00,
2013-05-10 11:14:00,69.4,66.0,29.95,NNE,18,0.0,2.0,89,0.00,,,0.00,meteohub,2013-05-10 16:14:00,
2013-05-10 11:20:00,69.3,65.8,29.95,NNE,18,1.0,4.0,89,0.00,,,0.00,meteohub,2013-05-10 16:20:00,
2013-05-10 11:25:00,69.4,65.7,29.95,NE,53,5.0,5.0,88,0.00,,,0.00,meteohub,2013-05-10 16:25:00,
2013-05-10 11:30:00,69.6,65.8,29.95,ENE,60,0.0,4.0,88,0.00,,,0.00,meteohub,2013-05-10 16:30:00,
2013-05-10 11:36:00,70.2,66.4,29.95,ENE,60,3.0,6.0,88,0.00,,,0.00,meteohub,2013-05-10 16:36:00,
2013-05-10 11:41:00,70.3,66.2,29.95,ENE,59,4.0,6.0,87,0.00,,,0.00,meteohub,2013-05-10 16:41:00,
2013-05-10 11:46:00,71.2,66.9,29.95,NE,52,4.0,6.0,86,0.00,,,0.00,meteohub,2013-05-10 16:46:00,
2013-05-10 11:51:00,71.6,67.5,29.95,NW,308,2.0,7.0,87,0.00,,,0.00,meteohub,2013-05-10 16:51:00,
2013-05-10 11:57:00,72.1,67.1,29.95,ENE,65,3.0,7.0,84,0.00,,,0.00,meteohub,2013-05-10 16:57:00,
2013-05-10 12:02:00,72.7,67.3,29.95,ENE,61,1.0,7.0,83,0.00,,,0.00,meteohub,2013-05-10 17:02:00,
2013-05-10 12:07:00,73.9,68.4,29.94,East,85,5.0,7.0,83,0.00,,,0.00,meteohub,2013-05-10 17:07:00,
2013-05-10 12:12:00,73.8,67.3,29.94,North,0,0.0,8.0,80,0.00,,,0.00,meteohub,2013-05-10 17:12:00,
2013-05-10 12:17:00,73.4,66.9,29.94,NE,53,1.0,8.0,80,0.00,,,0.00,meteohub,2013-05-10 17:17:00,
2013-05-10 12:22:00,73.4,67.3,29.94,NE,40,2.0,8.0,81,0.00,,,0.00,meteohub,2013-05-10 17:22:00,
2013-05-10 12:27:00,74.1,68.0,29.94,ENE,61,5.0,8.0,81,0.00,,,0.00,meteohub,2013-05-10 17:27:00,
2013-05-10 12:32:00,73.9,67.1,29.94,ENE,67,0.0,7.0,79,0.00,,,0.00,meteohub,2013-05-10 17:32:00,
2013-05-10 12:38:00,74.3,67.3,29.94,ENE,71,4.0,7.0,79,0.00,,,0.00,meteohub,2013-05-10 17:38:00,
2013-05-10 12:43:00,74.8,67.5,29.94,NNE,28,4.0,7.0,78,0.00,,,0.00,meteohub,2013-05-10 17:43:00,
2013-05-10 12:48:00,75.0,66.6,29.94,ENE,60,4.0,7.0,75,0.00,,,0.00,meteohub,2013-05-10 17:48:00,
2013-05-10 12:53:00,74.8,66.0,29.94,ENE,67,9.0,10.0,74,0.00,,,0.00,meteohub,2013-05-10 17:53:00,
2013-05-10 12:59:00,75.0,66.2,29.94,ENE,58,2.0,10.0,74,0.00,,,0.00,meteohub,2013-05-10 17:59:00,
2013-05-10 13:04:00,75.0,66.6,29.94,NE,49,2.0,10.0,75,0.00,,,0.00,meteohub,2013-05-10 18:04:00,
2013-05-10 13:09:00,75.4,66.9,29.94,ENE,62,7.0,11.0,75,0.00,,,0.00,meteohub,2013-05-10 18:09:00,
2013-05-10 13:15:00,74.8,66.0,29.93,NNE,33,0.0,11.0,74,0.00,,,0.00,meteohub,2013-05-10 18:15:00,
2013-05-10 13:20:00,75.4,66.6,29.93,NE,36,1.0,9.0,74,0.00,,,0.00,meteohub,2013-05-10 18:20:00,
2013-05-10 13:25:00,75.7,67.3,29.93,NE,50,0.0,9.0,75,0.00,,,0.00,meteohub,2013-05-10 18:25:00,
2013-05-10 13:31:00,75.9,66.2,29.93,NNE,26,2.0,9.0,72,0.00,,,0.00,meteohub,2013-05-10 18:31:00,
2013-05-10 13:36:00,76.6,68.9,29.92,NW,309,0.0,9.0,77,0.00,,,0.00,meteohub,2013-05-10 18:36:00,
2013-05-10 13:41:00,76.8,66.7,29.92,ENE,61,5.0,9.0,71,0.00,,,0.00,meteohub,2013-05-10 18:41:00,
2013-05-10 13:47:00,76.6,66.2,29.92,NE,56,0.0,9.0,70,0.00,,,0.00,meteohub,2013-05-10 18:47:00,
2013-05-10 13:52:00,76.8,66.7,29.92,NE,53,3.0,11.0,71,0.00,,,0.00,meteohub,2013-05-10 18:52:00,
2013-05-10 13:57:00,77.4,66.7,29.92,NNE,33,2.0,9.0,70,0.00,,,0.00,meteohub,2013-05-10 18:57:00,
2013-05-10 14:02:00,77.4,66.7,29.91,North,5,0.0,9.0,70,0.00,,,0.00,meteohub,2013-05-10 19:02:00,
2013-05-10 14:07:00,77.4,66.7,29.91,NNE,28,0.0,9.0,70,0.00,,,0.00,meteohub,2013-05-10 19:07:00,
2013-05-10 14:12:00,77.2,66.2,29.91,NNW,327,3.0,12.0,69,0.00,,,0.00,meteohub,2013-05-10 19:12:00,
2013-05-10 14:17:00,78.3,70.0,29.91,NE,40,3.0,12.0,76,0.00,,,0.00,meteohub,2013-05-10 19:17:00,
2013-05-10 14:22:00,78.3,66.7,29.91,ESE,105,1.0,6.0,68,0.00,,,0.00,meteohub,2013-05-10 19:22:00,
2013-05-10 14:27:00,78.3,66.0,29.91,NW,307,3.0,6.0,66,0.00,,,0.00,meteohub,2013-05-10 19:27:00,
2013-05-10 14:32:00,78.6,67.6,29.91,NE,54,3.0,6.0,69,0.00,,,0.00,meteohub,2013-05-10 19:32:00,
2013-05-10 14:37:00,79.0,68.4,29.90,NW,317,1.0,6.0,70,0.00,,,0.00,meteohub,2013-05-10 19:37:00,
2013-05-10 14:42:00,79.0,67.5,29.90,SE,128,1.0,9.0,68,0.00,,,0.00,meteohub,2013-05-10 19:42:00,
2013-05-10 14:47:00,79.5,68.0,29.90,NE,42,1.0,9.0,68,0.00,,,0.00,meteohub,2013-05-10 19:47:00,
2013-05-10 14:52:00,79.2,68.9,29.90,ENE,65,1.0,9.0,71,0.00,,,0.00,meteohub,2013-05-10 19:52:00,
2013-05-10 14:57:00,79.3,67.5,29.90,ENE,57,0.0,6.0,67,0.00,,,0.00,meteohub,2013-05-10 19:57:00,
2013-05-10 15:03:00,79.3,67.8,29.90,East,96,3.0,6.0,68,0.00,,,0.00,meteohub,2013-05-10 20:03:00,
2013-05-10 15:08:00,79.5,67.1,29.89,NE,44,3.0,9.0,66,0.00,,,0.00,meteohub,2013-05-10 20:08:00,
2013-05-10 15:13:00,80.1,66.7,29.89,NE,50,3.0,9.0,64,0.00,,,0.00,meteohub,2013-05-10 20:13:00,
2013-05-10 15:18:00,79.9,68.0,29.89,ESE,119,3.0,7.0,67,0.00,,,0.00,meteohub,2013-05-10 20:18:00,
2013-05-10 15:23:00,80.1,66.7,29.89,ENE,70,3.0,7.0,64,0.00,,,0.00,meteohub,2013-05-10 20:23:00,
2013-05-10 15:29:00,79.3,66.6,29.89,NE,35,0.0,8.0,65,0.00,,,0.00,meteohub,2013-05-10 20:29:00,
2013-05-10 15:34:00,79.5,66.2,29.89,NNE,26,0.0,8.0,64,0.00,,,0.00,meteohub,2013-05-10 20:34:00,
2013-05-10 15:39:00,79.5,66.7,29.89,North,9,2.0,9.0,65,0.00,,,0.00,meteohub,2013-05-10 20:39:00,
2013-05-10 15:45:00,80.1,66.7,29.89,NE,50,1.0,9.0,64,0.00,,,0.00,meteohub,2013-05-10 20:45:00,
2013-05-10 15:50:00,80.2,66.6,29.89,NNW,339,1.0,11.0,63,0.00,,,0.00,meteohub,2013-05-10 20:50:00,
2013-05-10 15:55:00,80.8,66.6,29.89,ENE,61,7.0,11.0,62,0.00,,,0.00,meteohub,2013-05-10 20:55:00,
2013-05-10 16:00:00,80.8,66.0,29.88,NE,56,5.0,11.0,61,0.00,,,0.00,meteohub,2013-05-10 21:00:00,
2013-05-10 16:06:00,81.0,66.7,29.88,NE,55,2.0,11.0,62,0.00,,,0.00,meteohub,2013-05-10 21:06:00,
2013-05-10 16:11:00,81.1,67.3,29.88,NNE,31,1.0,10.0,63,0.00,,,0.00,meteohub,2013-05-10 21:11:00,
2013-05-10 16:16:00,81.5,66.2,29.88,ENE,57,1.0,10.0,60,0.00,,,0.00,meteohub,2013-05-10 21:16:00,
2013-05-10 16:21:00,81.5,65.8,29.88,East,86,0.0,10.0,59,0.00,,,0.00,meteohub,2013-05-10 21:21:00,
2013-05-10 16:27:00,80.8,65.7,29.88,NE,55,1.0,7.0,60,0.00,,,0.00,meteohub,2013-05-10 21:27:00,
2013-05-10 16:32:00,80.8,65.7,29.88,NNW,334,1.0,7.0,60,0.00,,,0.00,meteohub,2013-05-10 21:32:00,
2013-05-10 16:37:00,80.2,65.1,29.88,ENE,72,3.0,7.0,60,0.00,,,0.00,meteohub,2013-05-10 21:37:00,
2013-05-10 16:42:00,80.4,65.3,29.88,NE,50,0.0,8.0,60,0.00,,,0.00,meteohub,2013-05-10 21:42:00,
2013-05-10 16:47:00,80.2,65.1,29.88,NNW,338,1.0,8.0,60,0.00,,,0.00,meteohub,2013-05-10 21:47:00,
2013-05-10 16:53:00,80.4,65.3,29.88,East,84,1.0,8.0,60,0.00,,,0.00,meteohub,2013-05-10 21:53:00,
2013-05-10 16:58:00,80.8,65.7,29.88,East,84,0.0,4.0,60,0.00,,,0.00,meteohub,2013-05-10 21:58:00,
2013-05-10 16:59:00,80.8,66.0,29.88,East,83,3.0,4.0,61,0.00,,,0.00,meteohub,2013-05-10 21:59:00,
2013-05-10 17:02:00,80.2,66.6,29.88,ENE,71,2.0,4.0,63,0.00,,,0.00,meteohub,2013-05-10 22:02:00,
2013-05-10 17:07:00,79.9,64.8,29.88,NE,47,3.0,4.0,60,0.00,,,0.00,meteohub,2013-05-10 22:07:00,
2013-05-10 17:13:00,79.5,64.4,29.88,NE,39,0.0,8.0,60,0.00,,,0.00,meteohub,2013-05-10 22:13:00,
2013-05-10 17:18:00,79.2,64.9,29.88,NE,47,4.0,8.0,62,0.00,,,0.00,meteohub,2013-05-10 22:18:00,
2013-05-10 17:23:00,78.6,64.9,29.88,North,9,0.0,8.0,63,0.00,,,0.00,meteohub,2013-05-10 22:23:00,
2013-05-10 17:28:00,78.3,65.1,29.88,NNW,344,0.0,5.0,64,0.00,,,0.00,meteohub,2013-05-10 22:28:00,
2013-05-10 17:34:00,77.9,66.0,29.88,NNW,344,0.0,5.0,67,0.00,,,0.00,meteohub,2013-05-10 22:34:00,
2013-05-10 17:39:00,78.1,65.8,29.88,ENE,75,0.0,1.0,66,0.00,,,0.00,meteohub,2013-05-10 22:39:00,
2013-05-10 17:44:00,78.6,66.4,29.88,NE,49,0.0,1.0,66,0.00,,,0.00,meteohub,2013-05-10 22:44:00,
2013-05-10 17:49:00,79.2,65.8,29.87,NE,49,0.0,5.0,64,0.00,,,0.00,meteohub,2013-05-10 22:49:00,
2013-05-10 17:55:00,79.5,66.2,29.87,NE,53,0.0,5.0,64,0.00,,,0.00,meteohub,2013-05-10 22:55:00,
2013-05-10 18:00:00,79.9,66.2,29.87,ENE,64,1.0,5.0,63,0.00,,,0.00,meteohub,2013-05-10 23:00:00,
2013-05-10 18:05:00,79.3,64.8,29.87,NE,41,0.0,5.0,61,0.00,,,0.00,meteohub,2013-05-10 23:05:00,
2013-05-10 18:11:00,79.3,65.7,29.86,NE,54,0.0,8.0,63,0.00,,,0.00,meteohub,2013-05-10 23:11:00,
2013-05-10 18:16:00,79.3,65.1,29.87,ENE,76,0.0,8.0,62,0.00,,,0.00,meteohub,2013-05-10 23:16:00,
2013-05-10 18:21:00,79.2,65.5,29.87,NE,46,5.0,5.0,63,0.00,,,0.00,meteohub,2013-05-10 23:21:00,
2013-05-10 18:26:00,79.0,65.8,29.87,NE,49,1.0,5.0,64,0.00,,,0.00,meteohub,2013-05-10 23:26:00,
2013-05-10 18:32:00,78.8,64.8,29.87,NE,49,0.0,5.0,62,0.00,,,0.00,meteohub,2013-05-10 23:32:00,
2013-05-10 18:37:00,78.6,64.6,29.87,ENE,70,0.0,8.0,62,0.00,,,0.00,meteohub,2013-05-10 23:37:00,
2013-05-10 18:42:00,78.6,64.9,29.87,ENE,69,0.0,8.0,63,0.00,,,0.00,meteohub,2013-05-10 23:42:00,
2013-05-10 18:47:00,78.4,64.4,29.87,NNW,335,0.0,8.0,62,0.00,,,0.00,meteohub,2013-05-10 23:47:00,
2013-05-10 18:52:00,78.4,64.4,29.87,NE,54,0.0,3.0,62,0.00,,,0.00,meteohub,2013-05-10 23:52:00,
2013-05-10 18:57:00,78.4,63.9,29.88,NE,54,0.0,3.0,61,0.00,,,0.00,meteohub,2013-05-10 23:57:00,
2013-05-10 19:02:00,78.3,64.2,29.88,NE,54,0.0,3.0,62,0.00,,,0.00,meteohub,2013-05-11 00:02:00,
2013-05-10 19:07:00,78.3,64.2,29.88,NE,54,0.0,5.0,62,0.00,,,0.00,meteohub,2013-05-11 00:07:00,
2013-05-10 19:12:00,78.1,64.4,29.88,NE,54,0.0,5.0,63,0.00,,,0.00,meteohub,2013-05-11 00:12:00,
2013-05-10 19:17:00,78.1,63.1,29.88,NNE,22,0.0,5.0,60,0.00,,,0.00,meteohub,2013-05-11 00:17:00,
2013-05-10 19:23:00,77.9,63.3,29.88,NNE,22,0.0,5.0,61,0.00,,,0.00,meteohub,2013-05-11 00:23:00,
2013-05-10 19:28:00,77.7,62.8,29.89,NW,325,0.0,5.0,60,0.00,,,0.00,meteohub,2013-05-11 00:28:00,
2013-05-10 19:33:00,77.5,62.6,29.88,NNW,334,0.0,5.0,60,0.00,,,0.00,meteohub,2013-05-11 00:33:00,
2013-05-10 19:38:00,77.5,62.6,29.89,NNW,333,1.0,2.0,60,0.00,,,0.00,meteohub,2013-05-11 00:38:00,
2013-05-10 19:44:00,77.4,62.4,29.89,NNW,333,0.0,2.0,60,0.00,,,0.00,meteohub,2013-05-11 00:44:00,
2013-05-10 19:49:00,77.2,62.6,29.89,NNW,333,0.0,2.0,61,0.00,,,0.00,meteohub,2013-05-11 00:49:00,
2013-05-10 19:54:00,76.8,61.9,29.89,NNW,333,0.0,2.0,60,0.00,,,0.00,meteohub,2013-05-11 00:54:00,
2013-05-10 19:59:00,76.6,61.7,29.89,NNW,333,0.0,2.0,60,0.00,,,0.00,meteohub,2013-05-11 00:59:00,
2013-05-10 20:05:00,76.5,62.1,29.89,NNW,333,0.0,2.0,61,0.00,,,0.00,meteohub,2013-05-11 01:05:00,
2013-05-10 20:10:00,76.3,62.2,29.89,NNW,333,0.0,1.0,62,0.00,,,0.00,meteohub,2013-05-11 01:10:00,
2013-05-10 20:15:00,75.9,61.5,29.91,NNW,329,3.0,3.0,61,0.00,,,0.00,meteohub,2013-05-11 01:15:00,
2013-05-10 20:20:00,75.7,61.9,29.91,NNW,329,0.0,4.0,62,0.00,,,0.00,meteohub,2013-05-11 01:20:00,
2013-05-10 20:26:00,75.7,61.9,29.91,NNW,329,0.0,4.0,62,0.00,,,0.00,meteohub,2013-05-11 01:26:00,
2013-05-10 20:31:00,75.6,61.7,29.92,NNW,329,0.0,4.0,62,0.00,,,0.00,meteohub,2013-05-11 01:31:00,
2013-05-10 20:36:00,75.2,61.3,29.92,NNW,329,0.0,4.0,62,0.00,,,0.00,meteohub,2013-05-11 01:36:00,
2013-05-10 20:41:00,75.0,61.2,29.92,NNW,329,0.0,1.0,62,0.00,,,0.00,meteohub,2013-05-11 01:41:00,
2013-05-10 20:47:00,74.8,61.3,29.93,NNW,329,0.0,1.0,63,0.00,,,0.00,meteohub,2013-05-11 01:47:00,
2013-05-10 20:52:00,74.5,61.5,29.93,NNW,329,0.0,1.0,64,0.00,,,0.00,meteohub,2013-05-11 01:52:00,
2013-05-10 20:57:00,74.1,61.2,29.93,NNW,329,0.0,1.0,64,0.00,,,0.00,meteohub,2013-05-11 01:57:00,
2013-05-10 21:02:00,74.1,61.5,29.94,NNW,329,0.0,1.0,65,0.00,,,0.00,meteohub,2013-05-11 02:02:00,
2013-05-10 21:07:00,74.3,61.3,29.94,NNW,329,0.0,1.0,64,0.00,,,0.00,meteohub,2013-05-11 02:07:00,
2013-05-10 21:12:00,74.3,60.8,29.94,NNW,329,0.0,1.0,63,0.00,,,0.00,meteohub,2013-05-11 02:12:00,
2013-05-10 21:17:00,74.1,61.2,29.94,NNW,329,0.0,1.0,64,0.00,,,0.00,meteohub,2013-05-11 02:17:00,
2013-05-10 21:22:00,74.1,60.8,29.94,NNW,329,0.0,1.0,63,0.00,,,0.00,meteohub,2013-05-11 02:22:00,
2013-05-10 21:28:00,74.1,60.3,29.95,NNW,329,0.0,1.0,62,0.00,,,0.00,meteohub,2013-05-11 02:28:00,
2013-05-10 21:33:00,74.3,60.8,29.95,NNW,329,0.0,1.0,63,0.00,,,0.00,meteohub,2013-05-11 02:33:00,
2013-05-10 21:38:00,74.1,60.8,29.95,NNW,329,0.0,1.0,63,0.00,,,0.00,meteohub,2013-05-11 02:38:00,
2013-05-10 21:44:00,74.1,60.3,29.95,NNW,329,0.0,1.0,62,0.00,,,0.00,meteohub,2013-05-11 02:44:00,
2013-05-10 21:49:00,74.1,60.3,29.95,NNW,329,0.0,1.0,62,0.00,,,0.00,meteohub,2013-05-11 02:49:00,
2013-05-10 21:54:00,73.9,60.6,29.95,NNW,329,1.0,1.0,63,0.00,,,0.00,meteohub,2013-05-11 02:54:00,
2013-05-10 21:59:00,73.8,60.4,29.96,NW,320,0.0,2.0,63,0.00,,,0.00,meteohub,2013-05-11 02:59:00,
2013-05-10 22:05:00,73.8,60.4,29.96,NW,317,0.0,2.0,63,0.00,,,0.00,meteohub,2013-05-11 03:05:00,
2013-05-10 22:10:00,73.6,60.3,29.96,NW,317,0.0,3.0,63,0.00,,,0.00,meteohub,2013-05-11 03:10:00,
2013-05-10 22:15:00,73.6,60.3,29.96,NW,317,0.0,3.0,63,0.00,,,0.00,meteohub,2013-05-11 03:15:00,
2013-05-10 22:20:00,73.4,60.1,29.97,NE,39,2.0,3.0,63,0.00,,,0.00,meteohub,2013-05-11 03:20:00,
2013-05-10 22:26:00,73.2,59.9,29.98,North,11,0.0,6.0,63,0.00,,,0.00,meteohub,2013-05-11 03:26:00,
2013-05-10 22:31:00,73.0,59.7,29.98,NE,53,5.0,6.0,63,0.00,,,0.00,meteohub,2013-05-11 03:31:00,
2013-05-10 22:36:00,72.9,59.9,29.98,West,273,0.0,6.0,64,0.00,,,0.00,meteohub,2013-05-11 03:36:00,
2013-05-10 22:41:00,72.7,59.7,29.99,NE,49,0.0,5.0,64,0.00,,,0.00,meteohub,2013-05-11 03:41:00,
2013-05-10 22:47:00,72.3,59.9,29.99,NE,55,4.0,5.0,65,0.00,,,0.00,meteohub,2013-05-11 03:47:00,
2013-05-10 22:52:00,72.1,60.1,29.99,NNE,26,0.0,6.0,66,0.00,,,0.00,meteohub,2013-05-11 03:52:00,
2013-05-10 22:57:00,72.1,60.1,29.99,ENE,61,0.0,9.0,66,0.00,,,0.00,meteohub,2013-05-11 03:57:00,
2013-05-10 23:01:00,72.0,59.9,29.99,ENE,74,3.0,9.0,66,0.00,,,0.00,meteohub,2013-05-11 04:01:00,
2013-05-10 23:02:00,71.8,60.3,29.99,ENE,65,2.0,9.0,67,0.00,,,0.00,meteohub,2013-05-11 04:02:00,
2013-05-10 23:03:00,71.8,60.3,29.99,NE,54,0.0,9.0,67,0.00,,,0.00,meteohub,2013-05-11 04:03:00,
2013-05-10 23:05:00,71.8,60.3,29.99,ENE,59,2.0,9.0,67,0.00,,,0.00,meteohub,2013-05-11 04:05:00,
2013-05-10 23:10:00,71.4,60.3,29.99,NE,54,2.0,8.0,68,0.00,,,0.00,meteohub,2013-05-11 04:10:00,
2013-05-10 23:15:00,71.2,60.1,30.00,ENE,59,0.0,8.0,68,0.00,,,0.00,meteohub,2013-05-11 04:15:00,
2013-05-10 23:20:00,71.1,60.4,30.00,NE,43,0.0,5.0,69,0.00,,,0.00,meteohub,2013-05-11 04:20:00,
2013-05-10 23:26:00,70.7,60.1,29.99,NNE,30,0.0,5.0,69,0.00,,,0.00,meteohub,2013-05-11 04:26:00,
2013-05-10 23:31:00,70.5,60.3,30.00,NE,55,0.0,5.0,70,0.00,,,0.00,meteohub,2013-05-11 04:31:00,
2013-05-10 23:36:00,70.3,60.1,29.99,NE,55,0.0,5.0,70,0.00,,,0.00,meteohub,2013-05-11 04:36:00,
2013-05-10 23:41:00,70.3,60.4,30.00,NE,55,0.0,4.0,71,0.00,,,0.00,meteohub,2013-05-11 04:41:00,
2013-05-10 23:47:00,70.2,60.3,30.00,NE,55,0.0,4.0,71,0.00,,,0.00,meteohub,2013-05-11 04:47:00,
2013-05-10 23:52:00,69.8,59.9,30.00,WNW,299,0.0,1.0,71,0.00,,,0.00,meteohub,2013-05-11 04:52:00,
2013-05-10 23:57:00,69.6,59.7,30.00,NNE,24,0.0,1.0,71,0.00,,,0.00,meteohub,2013-05-11 04:57:00,